Time,TemperatureF,DewpointF,PressureIn,WindDirection,WindDirectionDegrees,WindSpeedMPH,WindSpeedGustMPH,Humidity,HourlyPrecipIn,Conditions,Clouds,dailyrainin,SoftwareType,DateUTC
2013-01-22 00:02:00,9.0,8.0,-100.00,SSW,205,3.0,5.0,95,-99.99,,,-99.99,,2013-01-22 08:02:00,
2013-01-22 00:10:00,10.0,8.0,-100.00,WSW,240,5.0,6.0,91,-99.99,,,-99.99,,2013-01-22 08:10:00,
2013-01-22 01:02:00,10.0,8.0,-100.00,WSW,240,5.0,6.0,91,-99.99,,,-99.99,,2013-01-22 09:02:00,
2013-01-22 01:10:00,9.0,8.0,-100.00,SW,230,2.0,3.0,95,-99.99,,,-99.99,,2013-01-22 09:10:00,
2013-01-22 02:02:00,9.0,8.0,-100.00,SW,230,2.0,3.0,95,-99.99,,,-99.99,,2013-01-22 10:02:00,
2013-01-22 02:10:00,11.0,10.0,-100.00,SW,225,0.0,1.0,95,-99.99,,,-99.99,,2013-01-22 10:10:00,
2013-01-22 03:02:00,11.0,10.0,-100.00,SW,225,0.0,1.0,95,-99.99,,,-99.99,,2013-01-22 11:02:00,
2013-01-22 04:10:00,13.0,11.0,-100.00,North,-999,0.0,0.0,91,-99.99,,,-99.99,,2013-01-22 12:10:00,
2013-01-22 05:03:00,13.0,11.0,-100.00,North,-999,0.0,0.0,91,-99.99,,,-99.99,,2013-01-22 13:03:00,
2013-01-22 05:10:00,14.0,13.0,-100.00,NE,50,0.0,1.0,95,-99.99,,,-99.99,,2013-01-22 13:10:00,
2013-01-22 06:03:00,14.0,13.0,-100.00,NE,50,0.0,1.0,95,-99.99,,,-99.99,,2013-01-22 14:03:00,
2013-01-22 06:10:00,14.0,13.0,-100.00,NW,325,0.0,2.0,95,-99.99,,,-99.99,,2013-01-22 14:10:00,
2013-01-22 07:03:00,14.0,13.0,-100.00,NW,325,0.0,2.0,95,-99.99,,,-99.99,,2013-01-22 15:03:00,
2013-01-22 07:10:00,14.0,13.0,-100.00,NNE,30,2.0,3.0,95,-99.99,,,-99.99,,2013-01-22 15:10:00,
2013-01-22 08:03:00,14.0,13.0,-100.00,NNE,30,2.0,3.0,95,-99.99,,,-99.99,,2013-01-22 16:03:00,
2013-01-22 08:10:00,14.0,13.0,-100.00,ENE,60,1.0,2.0,95,-99.99,,,-99.99,,2013-01-22 16:10:00,
2013-01-22 09:03:00,14.0,13.0,-100.00,ENE,60,1.0,2.0,95,-99.99,,,-99.99,,2013-01-22 17:03:00,
2013-01-22 09:10:00,16.0,15.0,-100.00,North,360,2.0,3.0,95,-99.99,,,-99.99,,2013-01-22 17:10:00,
2013-01-22 10:03:00,16.0,15.0,-100.00,North,360,2.0,3.0,95,-99.99,,,-99.99,,2013-01-22 18:03:00,
2013-01-22 10:10:00,17.0,16.0,-100.00,NNE,25,2.0,3.0,95,-99.99,,,-99.99,,2013-01-22 18:10:00,
2013-01-22 11:03:00,17.0,16.0,-100.00,NNE,25,2.0,3.0,95,-99.99,,,-99.99,,2013-01-22 19:03:00,
2013-01-22 11:10:00,18.0,17.0,-100.00,North,10,3.0,3.0,95,-99.99,,,-99.99,,2013-01-22 19:10:00,
2013-01-22 12:03:00,18.0,17.0,-100.00,North,10,3.0,3.0,95,-99.99,,,-99.99,,2013-01-22 20:03:00,
2013-01-22 12:10:00,20.0,19.0,-100.00,NNE,30,3.0,5.0,95,-99.99,,,-99.99,,2013-01-22 20:10:00,
2013-01-22 13:03:00,20.0,19.0,-100.00,NNE,30,3.0,5.0,95,-99.99,,,-99.99,,2013-01-22 21:03:00,
2013-01-22 13:10:00,22.0,21.0,-100.00,NW,310,2.0,5.0,95,-99.99,,,-99.99,,2013-01-22 21:10:00,
2013-01-22 14:02:00,22.0,21.0,-100.00,NW,310,2.0,5.0,95,-99.99,,,-99.99,,2013-01-22 22:02:00,
2013-01-22 14:10:00,23.0,22.0,-100.00,North,5,1.0,3.0,95,-99.99,,,-99.99,,2013-01-22 22:10:00,
2013-01-22 15:02:00,23.0,22.0,-100.00,North,5,1.0,3.0,95,-99.99,,,-99.99,,2013-01-22 23:02:00,
2013-01-22 15:10:00,23.0,23.0,-100.00,NNE,15,1.0,3.0,100,-99.99,,,-99.99,,2013-01-22 23:10:00,
2013-01-22 16:03:00,23.0,23.0,-100.00,NNE,15,1.0,3.0,100,-99.99,,,-99.99,,2013-01-23 00:03:00,
2013-01-22 16:10:00,23.0,22.0,-100.00,West,270,1.0,3.0,95,-99.99,,,-99.99,,2013-01-23 00:10:00,
2013-01-22 17:03:00,23.0,22.0,-100.00,West,270,1.0,3.0,95,-99.99,,,-99.99,,2013-01-23 01:03:00,
2013-01-22 17:10:00,23.0,22.0,-100.00,NNE,20,0.0,2.0,95,-99.99,,,-99.99,,2013-01-23 01:10:00,
2013-01-22 18:03:00,23.0,22.0,-100.00,NNE,20,0.0,2.0,95,-99.99,,,-99.99,,2013-01-23 02:03:00,
2013-01-22 18:10:00,23.0,23.0,-100.00,SSE,165,1.0,3.0,100,-99.99,,,-99.99,,2013-01-23 02:10:00,
2013-01-22 19:03:00,23.0,23.0,-100.00,SSE,165,1.0,3.0,100,-99.99,,,-99.99,,2013-01-23 03:03:00,
2013-01-22 19:10:00,22.0,22.0,-100.00,NNW,335,0.0,1.0,100,-99.99,,,-99.99,,2013-01-23 03:10:00,
2013-01-22 20:03:00,22.0,22.0,-100.00,NNW,335,0.0,1.0,100,-99.99,,,-99.99,,2013-01-23 04:03:00,
2013-01-22 20:10:00,22.0,22.0,-100.00,NE,35,1.0,2.0,100,-99.99,,,-99.99,,2013-01-23 04:10:00,
2013-01-22 21:03:00,22.0,22.0,-100.00,NE,35,1.0,2.0,100,-99.99,,,-99.99,,2013-01-23 05:03:00,
2013-01-22 21:10:00,22.0,22.0,-100.00,NW,325,0.0,2.0,100,-99.99,,,-99.99,,2013-01-23 05:10:00,
2013-01-22 22:02:00,22.0,22.0,-100.00,NW,325,0.0,2.0,100,-99.99,,,-99.99,,2013-01-23 06:02:00,
2013-01-22 22:10:00,21.0,21.0,-100.00,NNE,30,0.0,2.0,100,-99.99,,,-99.99,,2013-01-23 06:10:00,
2013-01-22 23:02:00,21.0,21.0,-100.00,NNE,30,0.0,2.0,100,-99.99,,,-99.99,,2013-01-23 07:02:00,
2013-01-22 23:10:00,22.0,22.0,-100.00,North,10,1.0,3.0,100,-99.99,,,-99.99,,2013-01-23 07:10:00,